📊 Raw Sensor Data
Showing records 52551 to 52575 of 85,291 total
| ID | Distance (ft) | Battery V | Battery A | Int Temp (°F) | Int Humid (%) | Ext Temp (°F) | Solar V | RSSI | SNR | Time Stamp |
|---|---|---|---|---|---|---|---|---|---|---|
| 32753 | 13.1 | 3.72 | 0 | 63 | 39 | 60 | 5.10 | -77 | 8 | 02/18/2025 04:00 PM |
| 32752 | 13.1 | 3.72 | 0 | 64 | 40 | 61 | 5.10 | -77 | 8 | 02/18/2025 03:45 PM |
| 32751 | 13.1 | 4.04 | 0 | 65 | 40 | 61 | 5.10 | -77 | 7 | 02/18/2025 03:30 PM |
| 32750 | 13.2 | 3.73 | 0 | 66 | 39 | 61 | 5.10 | -77 | 8 | 02/18/2025 03:15 PM |
| 32749 | 13.2 | 3.73 | 0 | 70 | 37 | 61 | 5.10 | -77 | 8 | 02/18/2025 03:00 PM |
| 32748 | 13.2 | 3.89 | 0 | 73 | 35 | 63 | 5.10 | -76 | 8 | 02/18/2025 02:45 PM |
| 32747 | 13.2 | 3.73 | 0 | 71 | 35 | 61 | 5.10 | -77 | 8 | 02/18/2025 02:30 PM |
| 32746 | 13.2 | 3.73 | 0 | 69 | 36 | 61 | 5.10 | -77 | 8 | 02/18/2025 02:15 PM |
| 32745 | 13.2 | 3.73 | 0 | 70 | 35 | 61 | 5.10 | -76 | 8 | 02/18/2025 02:00 PM |
| 32744 | 13.2 | 4.05 | 0 | 68 | 35 | 61 | 5.10 | -77 | 7 | 02/18/2025 01:45 PM |
| 32743 | 13.2 | 3.73 | 0 | 67 | 36 | 59 | 5.10 | -77 | 8 | 02/18/2025 01:30 PM |
| 32742 | 13.2 | 3.73 | 0 | 67 | 35 | 59 | 5.10 | -77 | 8 | 02/18/2025 01:15 PM |
| 32741 | 13.2 | 3.73 | 0 | 66 | 36 | 59 | 5.10 | -77 | 8 | 02/18/2025 01:00 PM |
| 32740 | 13.2 | 3.73 | 0 | 65 | 35 | 58 | 5.10 | -77 | 7 | 02/18/2025 12:45 PM |
| 32739 | 13.2 | 3.73 | 0 | 64 | 35 | 59 | 5.10 | -79 | 8 | 02/18/2025 12:30 PM |
| 32738 | 13.2 | 3.73 | 0 | 64 | 36 | 59 | 5.10 | -79 | 8 | 02/18/2025 12:15 PM |
| 32737 | 13.2 | 3.73 | 0 | 62 | 36 | 57 | 5.10 | -78 | 6 | 02/18/2025 12:00 PM |
| 32736 | 13.2 | 3.73 | 0 | 63 | 35 | 57 | 5.10 | -79 | 8 | 02/18/2025 11:45 AM |
| 32735 | 13.2 | 3.74 | 0 | 62 | 35 | 57 | 5.10 | -79 | 8 | 02/18/2025 11:30 AM |
| 32734 | 13.2 | 3.81 | 0 | 61 | 35 | 56 | 5.10 | -80 | 6 | 02/18/2025 11:15 AM |
| 32733 | 13.2 | 3.73 | 0 | 59 | 35 | 55 | 5.10 | -81 | 8 | 02/18/2025 11:00 AM |
| 32732 | 13.2 | 3.73 | 0 | 58 | 35 | 54 | 5.10 | -79 | 8 | 02/18/2025 10:45 AM |
| 32731 | 13.2 | 3.97 | 0 | 57 | 35 | 55 | 5.10 | -79 | 8 | 02/18/2025 10:30 AM |
| 32730 | 13.2 | 3.73 | 0 | 55 | 35 | 54 | 5.10 | -81 | 8 | 02/18/2025 10:15 AM |
| 32729 | 13.2 | 3.73 | 0 | 53 | 35 | 53 | 5.10 | -79 | 8 | 02/18/2025 10:00 AM |